Home   Weather   Martigny   Past weeks

Flag for Switzerland Past Weather in Martigny, Valais, Switzerland — Yesterday and Last 2 Weeks

Now
48 °F

Sunny.


Feels Like: 48 °F
Forecast: 35 / 52 °F
Wind: 2 mph from Southwest

Location: Sion

Current Time: Feb 20, 2017 at 2:28:50 pm

Latest Report: Feb 20, 2017 at 1:00 pm


Visibility: 19 mi

Pressure: 30.27 "Hg

Humidity: 38%

Dew Point: 23 °F

Location of MartignyLocation

Past Weather in Martigny — Graph

°F

Martigny Temperature Yesterday

Maximum temperature yesterday: 53 °F (at 3:00 pm)
Minimum temperature yesterday: 29 °F (at 7:00 am)
Average temperature yesterday: 38 °F

High & Low Weather Summary for the Past Weeks

 TemperatureHumidityPressure
High61 °F (Feb 14, 3:00 pm)96% (Feb 5, 9:00 pm)30.68 "Hg (Feb 5, 9:00 pm)
Low29 °F (Feb 19, 7:00 am)21% (Feb 19, 2:00 pm)29.70 "Hg (Feb 5, 5:00 pm)
Average40 °F71%30.24 "Hg
* Reported Feb 5 1:00 pm — Feb 20 1:00 pm, Martigny, Weather by CustomWeather, © 2017

Note: Actual official high and low records may vary slightly from our data, if they occured in-between our weather recording intervals... More about our weather records

Advertising

Martigny Weather History for the Previous 24 Hours

Scroll right to see more
 ConditionsComfort  
Time TempWeatherWind HumidityBarometerVisibility
1:00 pm
Mon, Feb 20
48 °FSunny.2 mph38%30.27 "Hg19 mi
12:00 pm44 °FQuite cool.2 mph43%30.32 "HgN/A
11:00 am41 °FQuite cool.2 mph50%30.34 "HgN/A
10:00 am36 °FSunny.1 mph65%30.38 "Hg16 mi
9:00 am32 °FChilly.3 mph72%30.39 "HgN/A
8:00 am31 °FChilly.5 mph73%30.38 "HgN/A
7:00 am31 °FClear.3 mph74%30.37 "Hg16 mi
6:00 am30 °FChilly.No wind77%30.38 "HgN/A
5:00 am30 °FChilly.1 mph76%30.38 "HgN/A
4:00 am29 °FClear.1 mph81%30.37 "Hg12 mi
3:00 am31 °FChilly.No wind75%30.36 "HgN/A
2:00 am34 °FChilly.1 mph67%30.36 "HgN/A
1:00 am32 °FClear.1 mph76%30.36 "Hg12 mi
12:00 am32 °FChilly.1 mph77%30.34 "HgN/A
11:00 pm
Sun, Feb 19
33 °FChilly.1 mph71%30.32 "HgN/A
10:00 pm35 °FPassing clouds.2 mph68%30.31 "Hg12 mi
9:00 pm38 °FChilly.1 mph61%30.29 "HgN/A
8:00 pm40 °FQuite cool.2 mph55%30.28 "HgN/A
7:00 pm45 °FPassing clouds.1 mph49%30.24 "Hg19 mi
6:00 pm49 °FCool.9 mph42%30.22 "HgN/A
5:00 pm52 °FCool.7 mph35%30.21 "HgN/A
4:00 pm52 °FSunny.10 mph31%30.21 "Hg19 mi
3:00 pm53 °FCool.5 mph22%30.22 "HgN/A
2:00 pm51 °FCool.3 mph21%30.24 "HgN/A
Weather by CustomWeather, © 2017

See weather overviewHow to use our weather pages